Вернуться в каталог

FENGYUN 1C DEB

АктивенSSO
NORAD 31695·DEBRIS·🇨🇳 China

Запущен May 10, 1999 с Taiyuan Satellite Launch Center

Loading…

Ближайшие Пролёты (ближайшие 24 часа)

TLE

СвежийSource: Space-Track

Эпоха: Sep 14, 2026, 11:33 UTC

1 31695U 99025CDD 26257.48165297  .00006455  00000-0  70519-3 0  9998
2 31695  98.2559 353.2076 0161826  66.8671 294.9500 14.79081863700416

Отслеживайте FENGYUN 1C DEB в реальном времени с AllMySat

Download on the App Store